sat.trackr.live / text

‹ back to catalog

O3B FM15

NORAD 43231 · 2018-024A

PAYLOAD ACTIVE UNKNOWN

§ Identity

Operator
Country
O3B
Launch date
2018-03-09
Launch site
FRGUI
Launch vehicle
Mass (kg)
RCS (m²)

Purposes: comms

External: N2YO · Heavens-Above · Gunter

§ Orbital elements

Epoch: 2026-05-23T16:56:52.841760Z

Period
287.93 min
Inclination
0.0512°
Eccentricity
0.0002630
Mean motion
5.00115757 rev/d
Perigee alt
8,062.1 km
Apogee alt
8,069.7 km
Semi-major
14,444.0 km
B*
0.0000e+0
RAAN
3.5814°
Arg perigee
55.5771°
Mean anomaly
300.8664°
Rev number
14,980

§ Raw data

O3B FM151 43231U 18024A   26143.70616715 -.00000025  00000+0  00000+0 0  99932 43231   0.0512   3.5814 0002630  55.5771 300.8664  5.00115757149805

JSON: /api/v1/satellites/43231 · /tle

For live sub-satellite position, see the globe view (requires WebGL).

§ Visibility from observer

Set your observer location to see the next 7 days of passes ≥ 10°. The values pass through the URL so the page stays shareable.

No JS? Fill the form by hand. The geolocation button needs JavaScript.